RH
42 43 46 50 55 57 59 60 60 60 60 60 60 60 61 60 60 59 58 58 57 57 56 55 54 53 52 52 51 49 48 47 45 44 45 46 46 44 42 39 36 35
41 43 45 49 54 58 60 61 63 63 63 64 63 63 63 63 63 62 62 61 61 61 60 60 58 56 55 54 53 52 51 49 48 45 44 44 46 47 45 42 38 34
41 44 46 48 51 55 58 60 61 63 65 66 66 66 67 67 68 68 68 67 68 68 68 67 65 62 59 57 57 55 53 52 50 49 47 45 47 49 49 46 42 39
41 44 46 48 51 53 56 58 59 61 63 66 67 68 69 71 72 73 74 75 76 77 76 75 74 71 66 62 60 59 57 55 53 52 51 50 50 50 51 51 47 43
40 43 46 48 51 53 55 57 59 60 62 64 67 69 71 72 75 76 78 79 82 85 85 84 83 81 75 69 65 63 61 58 55 54 53 53 53 53 53 54 50 46
40 43 46 49 51 53 55 56 57 59 61 63 66 69 71 73 75 78 81 83 86 89 91 90 90 88 84 78 73 68 65 62 59 57 56 56 57 57 56 54 51 48
40 43 46 49 53 55 57 58 59 60 61 63 65 67 71 74 76 79 82 86 89 91 93 93 93 91 89 85 79 73 69 67 65 63 63 62 61 59 56 53 50 48
41 44 46 49 53 56 58 59 61 63 65 66 67 68 71 73 76 79 82 85 88 91 94 94 93 92 91 89 85 80 74 72 71 69 66 63 60 56 53 50 47 44
41 43 45 49 52 55 58 60 61 63 66 69 71 72 73 73 74 77 80 83 86 89 93 96 95 93 91 91 89 85 80 76 72 68 65 60 56 50 46 44 42 40
41 43 45 47 50 54 57 59 62 64 67 70 71 73 76 77 76 76 78 80 83 86 89 94 96 95 93 91 89 88 84 78 72 66 62 57 51 47 45 44 44 42
41 43 45 47 49 51 54 56 60 63 67 71 73 74 76 77 78 77 77 78 80 83 86 89 93 96 95 92 89 87 85 80 75 68 63 58 52 49 48 48 48 47
43 44 46 47 48 49 50 52 55 58 61 65 70 74 76 77 77 77 78 78 78 80 83 87 89 91 94 94 91 88 86 82 79 73 67 62 58 55 53 51 51 50
44 46 47 48 49 49 49 50 51 54 57 59 62 66 72 75 76 76 76 78 79 79 81 84 86 85 87 92 93 92 89 86 82 79 74 68 63 60 58 57 56 55
45 47 48 50 50 51 51 50 50 52 56 59 60 61 65 69 72 75 77 78 80 81 81 83 85 83 81 83 89 92 93 90 87 83 80 75 69 65 63 62 61 61
47 49 50 51 51 51 52 51 51 52 55 59 62 62 63 64 66 72 77 79 79 79 81 83 85 84 80 77 79 84 89 91 90 86 84 80 75 71 69 67 66 65
46 50 52 53 52 51 52 52 51 52 55 59 63 64 64 64 63 66 73 79 81 80 80 82 83 84 84 80 75 76 80 84 86 85 83 79 75 74 74 73 72 71
46 49 53 55 55 53 52 53 52 52 54 59 63 65 65 65 65 65 68 74 79 80 82 83 82 82 84 84 79 75 75 77 80 82 81 80 78 76 76 76 77 78
49 50 52 56 58 57 54 53 53 53 53 57 61 64 65 65 67 68 70 71 74 77 80 84 85 84 84 84 82 78 74 72 74 78 80 81 82 81 81 81 82 82
52 53 54 56 58 61 59 56 54 54 55 56 58 61 63 65 67 70 73 74 72 73 76 80 84 87 87 86 84 82 78 74 72 74 76 79 81 83 85 86 87 89
54 55 56 57 58 61 63 62 59 56 56 57 58 59 61 64 67 69 73 75 73 72 75 77 80 83 86 88 89 87 84 81 77 74 74 75 77 80 83 86 88 92
55 56 57 58 59 61 63 65 64 60 57 58 60 59 60 62 65 69 72 75 73 72 73 75 77 80 82 85 89 89 87 85 83 80 78 76 76 77 79 82 85 88
54 57 58 58 59 61 62 65 68 67 63 61 60 60 61 62 64 68 71 73 73 72 72 73 73 77 81 84 85 86 87 87 86 84 82 80 79 78 78 80 82 84
50 54 58 60 60 61 62 63 66 70 72 70 66 63 62 63 65 69 71 71 72 73 73 73 71 74 83 88 86 82 82 84 86 85 82 81 81 82 82 81 81 82
46 50 56 60 62 63 63 63 64 67 74 78 78 74 69 65 67 71 72 71 72 72 72 73 72 73 82 88 87 83 80 79 83 85 83 81 82 82 83 83 83 81
43 46 51 57 61 64 65 65 64 65 70 77 83 86 82 76 73 75 74 71 72 73 72 71 71 73 79 83 85 86 83 78 79 84 84 82 81 83 83 82 81 82
41 43 47 52 58 64 67 67 66 66 68 74 81 87 89 87 85 83 79 75 74 75 73 71 71 73 77 80 82 86 86 80 77 81 84 82 80 83 84 81 79 82